VE2JJ-13 Weather Reports


time (UTC)temp
F
wind
direction
speed
knots
gust
knots
rain 1hr
in
rain 24hr
in
rain mn
in
humidity
%
barometer
mb
20260510143740 61 226 19.1 13.9 0.00 0.03 0.03 50 1002.4
20260510143211 61 203 26.1 13.9 0.00 0.03 0.03 50 1002.4
20260510142711 61 217 13.9 11.3 0.00 0.03 0.03 50 1002.3
20260510142140 61 302 14.8 13.9 0.00 0.03 0.03 51 1002.3
20260510141641 61 211 15.6 12.2 0.00 0.03 0.03 52 1002.1
20260510141141 61 258 13.0 7.8 0.00 0.03 0.03 54 1002.1
20260510140647 60 225 13.9 11.3 0.00 0.03 0.03 53 1002.1
20260510140140 60 218 15.6 11.3 0.00 0.03 0.03 53 1002.1
20260510135642 60 199 12.2 12.2 0.00 0.03 0.03 52 1002.1
20260510135139 60 247 17.4 15.6 0.00 0.03 0.03 52 1002.1
20260510134641 60 236 17.4 17.4 0.00 0.03 0.03 51 1002.1
20260510134142 60 235 20.0 13.9 0.00 0.03 0.03 55 1002.1
20260510133640 60 235 17.4 11.3 0.00 0.03 0.03 56 1002.0
20260510133109 60 225 17.4 11.3 0.00 0.03 0.03 56 1002.0
20260510132611 61 239 20.0 17.4 0.00 0.03 0.03 55 1001.8
20260510132108 60 240 15.6 10.4 0.00 0.03 0.03 57 1001.8
20260510131609 61 290 11.3 8.7 0.00 0.03 0.03 58 1001.7
20260510131110 60 269 13.9 10.4 0.00 0.03 0.03 58 1001.7
20260510130108 58 173 10.4 8.7 0.00 0.03 0.03 59 1001.5
20260510125610 58 258 18.2 14.8 0.00 0.03 0.03 59 1001.5
20260510125108 57 236 27.8 20.0 0.00 0.03 0.03 60 1001.4
20260510124109 57 285 14.8 15.6 0.00 0.03 0.03 60 1001.3
20260510123539 57 191 12.2 7.0 0.00 0.03 0.03 61 1001.3
20260510123038 56 215 17.4 12.2 0.00 0.03 0.03 61 1001.3
20260510122539 56 224 8.7 7.0 0.00 0.03 0.03 63 1001.3
20260510122038 55 225 13.9 10.4 0.00 0.03 0.03 64 1001.3
20260510121538 55 165 8.7 8.7 0.00 0.03 0.03 66 1001.1
20260510121039 55 221 7.8 12.2 0.00 0.03 0.03 67 1001.1
20260510120543 55 226 11.3 7.8 0.00 0.03 0.03 69 1001.1
20260510120038 55 238 11.3 7.0 0.00 0.03 0.03 69 1001.1
20260510115539 55 238 15.6 12.2 0.00 0.03 0.03 67 1001.1
20260510115040 56 228 11.3 8.7 0.00 0.03 0.03 69 1001.0
20260510114538 56 233 19.1 15.6 0.00 0.03 0.03 73 1001.0
20260510114037 56 266 13.0 8.7 0.00 0.03 0.03 73 1000.9
20260510113540 56 178 7.0 11.3 0.00 0.03 0.03 78 1000.9
20260510113040 54 123 5.2 2.6 0.00 0.03 0.03 82 1000.9
20260510112537 54 229 5.2 2.6 0.00 0.03 0.03 82 1000.8
20260510112038 55 217 6.1 5.2 0.00 0.03 0.03 82 1000.8
20260510111540 55 269 7.8 6.1 0.00 0.03 0.03 83 1000.6
20260510111040 54 236 6.1 4.3 0.00 0.03 0.03 84 1000.6
20260510110539 53 103 5.2 7.0 0.00 0.03 0.03 86 1000.6
20260510110040 52 268 4.3 4.3 0.00 0.03 0.03 88 1000.0
20260510105538 52 214 0.9 0.0 0.00 0.03 0.03 89 1000.0
20260510105038 52 146 4.3 2.6 0.00 0.03 0.03 89 1000.1
20260510104538 52 135 0.9 4.3 0.00 0.03 0.03 89 1000.1
20260510104037 52 116 0.9 1.7 0.00 0.03 0.03 89 1000.0
20260510103537 52 159 2.6 1.7 0.00 0.03 0.03 89 1000.0
20260510103037 52 211 0.9 5.2 0.00 0.03 0.03 90 1000.0
20260510102539 52 225 0.9 2.6 0.00 0.03 0.03 90 1000.0
20260510102011 51 180 2.6 4.3 0.00 0.03 0.03 90 1000.0
20260510101507 51 190 6.1 7.0 0.00 0.03 0.03 91 999.8
20260510101008 51 90 5.2 5.2 0.00 0.03 0.03 91 999.8
20260510100509 51 153 5.2 5.2 0.00 0.03 0.03 91 999.8
20260510100010 51 134 0.9 2.6 0.00 0.03 0.03 92 999.6
20260510095509 51 168 5.2 2.6 0.00 0.03 0.03 92 999.6
20260510095007 51 150 2.6 4.3 0.00 0.03 0.03 92 999.4
20260510094508 50 143 2.6 4.3 0.00 0.03 0.03 92 999.4
20260510094007 50 163 4.3 2.6 0.00 0.03 0.03 92 999.2
20260510093507 50 171 4.3 4.3 0.00 0.03 0.03 92 999.2
20260510093009 50 124 7.0 5.2 0.00 0.03 0.03 92 999.2
20260510092507 50 137 2.6 5.2 0.00 0.03 0.03 92 999.1
20260510092009 51 106 0.0 0.0 0.00 0.03 0.03 91 999.1
20260510091506 51 191 1.7 4.3 0.00 0.03 0.03 91 999.1
20260510091007 51 142 4.3 2.6 0.00 0.03 0.03 91 999.1
20260510090510 51 148 2.6 2.6 0.00 0.03 0.03 91 999.1
20260510090007 51 132 2.6 4.3 0.00 0.03 0.03 91 998.8
20260510085508 51 117 4.3 5.2 0.00 0.03 0.03 91 998.8
20260510085007 51 106 5.2 1.7 0.00 0.03 0.03 91 998.9
20260510084506 51 167 6.1 5.2 0.00 0.03 0.03 91 998.9
20260510084008 51 167 4.3 4.3 0.00 0.03 0.03 91 998.8
20260510083510 51 143 2.6 1.7 0.00 0.03 0.03 91 998.7
20260510083008 51 160 6.1 4.3 0.00 0.03 0.03 91 998.7
20260510082437 51 171 4.3 6.1 0.00 0.03 0.03 91 998.7
20260510081942 51 130 8.7 7.0 0.00 0.03 0.03 91 998.7
20260510081436 51 200 7.8 4.3 0.00 0.03 0.03 91 998.8
20260510080939 51 183 7.0 7.0 0.00 0.03 0.03 91 998.8
20260510080437 51 120 11.3 8.7 0.00 0.03 0.03 91 998.7
20260510075938 51 180 5.2 4.3 0.00 0.03 0.03 91 998.7
20260510075437 52 218 7.0 5.2 0.00 0.03 0.03 91 998.7
20260510074937 52 134 7.0 6.1 0.00 0.03 0.03 91 998.6
20260510074440 52 245 5.2 6.1 0.00 0.03 0.03 91 998.6
20260510073935 52 153 8.7 8.7 0.00 0.03 0.03 91 998.6
20260510073439 52 114 6.1 7.0 0.00 0.03 0.03 91 998.6
20260510072937 52 317 6.1 4.3 0.00 0.03 0.03 91 998.6
20260510072438 52 115 10.4 7.8 0.01 0.03 0.03 91 998.5
20260510071939 52 135 7.0 6.1 0.01 0.03 0.03 91 998.5
20260510071437 52 147 6.1 5.2 0.01 0.03 0.03 91 998.4
20260510070938 52 103 7.0 7.0 0.01 0.03 0.03 91 998.4
20260510070436 52 163 7.8 7.0 0.01 0.03 0.03 92 998.3
20260510065939 52 144 7.0 7.0 0.02 0.03 0.03 92 998.3
20260510065439 52 189 8.7 7.0 0.02 0.03 0.03 92 998.3
20260510064939 52 130 7.8 7.0 0.03 0.03 0.03 92 998.3
20260510064406 52 221 14.8 13.9 0.03 0.03 0.03 92 998.3
20260510063907 52 127 10.4 12.2 0.03 0.03 0.03 92 998.2
20260510063336 52 270 10.4 7.0 0.03 0.03 0.03 92 998.2
20260510062840 52 112 8.7 13.9 0.03 0.03 0.03 92 998.4
20260510062335 52 51 10.4 7.0 0.02 0.02 0.02 92 998.4
20260510061805 52 86 10.4 10.4 0.02 0.02 0.02 92 998.4
20260510061305 52 291 10.4 6.1 0.02 0.02 0.02 91 998.5
20260510060805 52 160 12.2 8.7 0.02 0.02 0.02 91 998.5
20260510060309 52 132 8.7 7.8 0.01 0.01 0.01 91 998.5
20260510055806 52 112 8.7 7.0 0.01 0.01 0.01 90 998.5
20260510055307 52 52 13.9 8.7 0.01 0.01 0.01 90 998.5
20260510054805 52 233 8.7 7.0 0.00 0.00 0.00 89 998.6
20260510053736 52 112 7.8 8.7 0.00 0.00 0.00 87 998.5
20260510053307 53 173 13.0 13.9 0.00 0.00 0.00 85 998.5
20260510053235 53 173 13.0 13.9 0.00 0.00 0.00 85 998.5
20260510052735 53 68 7.8 8.7 0.00 0.00 0.00 85 998.5
20260510052236 53 191 8.7 8.7 0.00 0.00 0.00 83 998.5
20260510051735 53 234 13.9 17.4 0.00 0.00 0.00 81 998.5
20260510051235 53 189 11.3 13.9 0.00 0.00 0.00 81 998.4
20260510050735 53 112 12.2 12.2 0.00 0.00 0.00 80 998.4
20260510050236 53 136 7.0 5.2 0.00 0.00 0.00 80 998.5
20260510045738 53 141 10.4 12.2 0.00 0.00 0.00 80 998.5
20260510045235 52 153 11.3 8.7 0.00 0.00 0.00 80 998.4
20260510044734 52 321 10.4 6.1 0.00 0.00 0.00 80 998.4
20260510044234 52 215 12.2 11.3 0.00 0.00 0.00 80 998.4
20260510043735 52 73 12.2 12.2 0.00 0.00 0.00 80 998.1
20260510043235 52 94 7.8 13.0 0.00 0.00 0.00 80 998.1
20260510042735 52 68 13.0 7.0 0.00 0.00 0.00 79 997.9
20260510042235 52 154 11.3 11.3 0.00 0.00 0.00 79 997.9
20260510041734 51 146 14.8 13.0 0.00 0.00 0.00 79 997.9
20260510041237 51 119 13.9 8.7 0.00 0.00 0.00 79 998.2
20260510040735 51 130 8.7 13.0 0.00 0.00 0.00 79 998.2
20260510040235 51 170 12.2 11.3 0.00 0.00 0.00 79 998.1
20260510035734 51 121 12.2 12.2 0.00 0.00 0.00 79 998.1
20260510035234 51 105 14.8 13.0 0.00 0.00 0.00 79 998.3
20260510034738 51 120 12.2 12.2 0.00 0.00 0.00 79 998.4
20260510034236 51 98 13.9 7.0 0.00 0.00 0.00 79 998.4
20260510033736 51 153 12.2 11.3 0.00 0.00 0.00 79 998.5
20260510033234 51 112 10.4 7.8 0.00 0.00 0.00 79 998.5
20260510032735 51 124 11.3 8.7 0.00 0.00 0.00 79 998.2
20260510031733 51 123 13.9 11.3 0.00 0.00 0.00 79 998.2
20260510031236 52 104 11.3 8.7 0.00 0.00 0.00 79 998.7
20260510030733 52 116 12.2 7.8 0.00 0.00 0.00 79 998.7
20260510030234 52 140 7.8 7.8 0.00 0.00 0.00 79 999.1
20260510025737 52 120 13.9 12.2 0.00 0.00 0.00 79 999.1
20260510025235 52 156 13.9 8.7 0.00 0.00 0.00 79 999.1
20260510024733 52 110 12.2 17.4 0.00 0.00 0.00 79 999.1
20260510024235 52 126 13.9 11.3 0.00 0.00 0.00 79 999.1
20260510023734 52 163 7.0 15.6 0.00 0.00 0.00 79 999.2
20260510023237 52 152 13.0 8.7 0.00 0.00 0.00 79 999.2
20260510022705 52 181 15.6 8.7 0.00 0.00 0.00 79 999.3
20260510022207 52 165 10.4 10.4 0.00 0.00 0.00 79 999.3
20260510021703 52 135 12.2 8.7 0.00 0.00 0.00 79 999.3
20260510021205 52 102 7.8 5.2 0.00 0.00 0.00 79 999.5
20260510020634 52 112 7.0 8.7 0.00 0.00 0.00 78 999.5
20260510020104 52 126 13.9 10.4 0.00 0.00 0.00 78 999.8
20260510015605 52 17 5.2 7.0 0.00 0.00 0.00 77 999.8
20260510015036 52 86 5.2 7.0 0.00 0.00 0.00 76 999.5
20260510014535 52 118 7.0 6.1 0.00 0.00 0.00 76 999.5
20260510014034 52 111 13.0 8.7 0.00 0.00 0.00 76 999.6
20260510013533 52 205 13.9 11.3 0.00 0.00 0.00 76 999.6
20260510013034 52 124 11.3 7.8 0.00 0.00 0.00 75 999.6
20260510012533 53 147 7.0 6.1 0.00 0.00 0.00 75 999.6
20260510011506 53 103 12.2 10.4 0.00 0.00 0.00 74 999.6
20260510010937 53 99 12.2 17.4 0.00 0.00 0.00 73 999.6
20260510010436 53 140 13.9 10.4 0.00 0.00 0.00 73 999.6
20260510005933 53 96 7.8 7.0 0.00 0.00 0.00 72 999.6
20260510005435 53 135 13.9 8.7 0.00 0.00 0.00 72 999.6
20260510004932 53 125 7.8 7.0 0.00 0.00 0.00 72 999.8
20260510004436 53 147 7.0 6.1 0.00 0.00 0.00 72 999.8
20260510003937 54 167 8.7 13.9 0.00 0.00 0.00 71 999.5
20260510003437 54 79 10.4 7.8 0.00 0.00 0.00 71 999.5
20260510002903 54 112 7.8 5.2 0.00 0.00 0.00 70 999.5
20260510002403 54 292 7.8 4.3 0.00 0.00 0.00 70 999.6
20260510001902 54 106 12.2 14.8 0.00 0.00 0.00 69 999.6
20260510001403 55 119 17.4 11.3 0.00 0.00 0.00 68 999.6
20260510000904 55 191 15.6 13.9 0.00 0.00 0.00 68 999.6
20260510000405 55 131 13.0 8.7 0.00 0.00 0.00 68 999.4
20260509235904 55 174 11.3 12.2 0.00 0.00 0.00 67 999.4
20260509235334 55 112 13.9 10.4 0.00 0.00 0.00 66 999.4
20260509234834 55 113 11.3 12.2 0.00 0.00 0.00 66 999.4
20260509234337 56 46 13.0 14.8 0.00 0.00 0.00 66 999.4
20260509233832 56 68 10.4 13.9 0.00 0.00 0.00 65 999.4
20260509233334 56 123 15.6 13.9 0.00 0.00 0.00 65 999.4
20260509232835 56 69 14.8 13.0 0.00 0.00 0.00 64 999.5
20260509232335 57 112 17.4 11.3 0.00 0.00 0.00 63 999.5
20260509231837 57 162 20.0 18.2 0.00 0.00 0.00 62 999.5
20260509231442 58 203 20.0 14.8 0.00 0.00 0.00 61 999.8
20260509231333 58 203 20.0 14.8 0.00 0.00 0.00 61 999.8
20260509230832 58 56 11.3 8.7 0.00 0.00 0.00 61 999.8
20260509230333 59 112 24.3 15.6 0.00 0.00 0.00 60 999.6
20260509225805 59 164 20.9 19.1 0.00 0.00 0.00 60 999.6
20260509225306 60 140 14.8 8.7 0.00 0.00 0.00 60 999.8
20260509224802 60 101 20.0 14.8 0.00 0.00 0.00 60 999.8
20260509224302 60 135 12.2 12.2 0.00 0.00 0.00 59 999.8
20260509223803 60 112 8.7 7.0 0.00 0.00 0.00 59 999.8
20260509223302 60 144 20.9 17.4 0.00 0.00 0.00 58 999.8
20260509222801 60 93 14.8 8.7 0.00 0.00 0.00 57 999.6
20260509222306 61 182 15.6 14.8 0.00 0.00 0.00 56 999.6
20260509221805 61 103 11.3 13.9 0.00 0.00 0.00 56 999.5
20260509221305 61 147 11.3 17.4 0.00 0.00 0.00 55 999.5
20260509220802 61 68 11.3 10.4 0.00 0.00 0.00 56 999.5
20260509220303 60 75 10.4 12.2 0.00 0.00 0.00 56 999.5
20260509215803 61 170 13.9 12.2 0.00 0.00 0.00 55 999.5
20260509215301 62 263 15.6 10.4 0.00 0.00 0.00 52 999.6
20260509214802 62 270 13.9 10.4 0.00 0.00 0.00 52 999.6
20260509214231 63 141 11.3 12.2 0.00 0.00 0.00 51 999.6
20260509213733 63 98 18.2 18.2 0.00 0.00 0.00 49 999.7
20260509213233 63 140 17.4 12.2 0.00 0.00 0.00 49 999.7
20260509212731 63 95 20.9 19.1 0.00 0.00 0.00 49 999.7
20260509211704 63 112 21.7 21.7 0.00 0.00 0.00 48 999.7
20260509211204 63 243 13.9 11.3 0.00 0.00 0.00 49 999.7
20260509210704 63 107 17.4 13.0 0.00 0.00 0.00 49 999.7
20260509210201 64 238 15.6 19.1 0.00 0.00 0.00 49 999.9
20260509205703 63 151 14.8 17.4 0.00 0.00 0.00 50 999.9
20260509205202 64 342 11.3 13.9 0.00 0.00 0.00 49 999.7
20260509204709 63 140 13.9 14.8 0.00 0.00 0.00 49 999.7
20260509204201 64 234 8.7 7.0 0.00 0.00 0.00 48 999.7
20260509203632 64 138 12.2 10.4 0.00 0.00 0.00 48 1000.0
20260509203133 64 195 10.4 7.8 0.00 0.00 0.00 47 1000.0
20260509202633 65 209 20.9 20.9 0.00 0.00 0.00 45 1000.0
20260509202131 64 163 13.0 8.7 0.00 0.00 0.00 45 1000.0
20260509201604 65 180 8.7 6.1 0.00 0.00 0.00 42 1000.1
20260509201102 65 180 10.4 6.1 0.00 0.00 0.00 42 1000.1
20260509200607 65 210 18.2 13.9 0.00 0.00 0.00 43 1000.1
20260509195601 64 180 7.8 10.4 0.00 0.00 0.00 43 1000.3
20260509195103 65 204 13.9 8.7 0.00 0.00 0.00 41 1000.1
20260509194602 66 17 13.9 13.0 0.00 0.00 0.00 38 1000.1
20260509194101 67 247 13.0 19.1 0.00 0.00 0.00 37 1000.1
20260509193601 67 184 11.3 11.3 0.00 0.00 0.00 32 1000.1
20260509193100 66 124 13.0 8.7 0.00 0.00 0.00 31 1000.1
20260509192600 66 154 13.9 8.7 0.00 0.00 0.00 29 1000.4
20260509192101 66 220 25.2 25.2 0.00 0.00 0.00 29 1000.4
20260509191030 67 158 12.2 11.3 0.00 0.00 0.00 29 1000.2
20260509190533 66 137 13.9 12.2 0.00 0.00 0.00 27 1000.2
20260509185530 67 171 7.8 7.0 0.00 0.00 0.00 29 1000.3
20260509185002 66 167 13.0 12.2 0.00 0.00 0.00 27 1000.6
20260509184500 66 86 10.4 8.7 0.00 0.00 0.00 28 1000.6
20260509184005 67 119 14.8 13.9 0.00 0.00 0.00 28 1000.8
20260509183500 66 93 20.0 13.9 0.00 0.00 0.00 27 1000.8
20260509183000 67 106 13.0 12.2 0.00 0.00 0.00 28 1000.8
20260509182501 66 151 12.2 18.2 0.00 0.00 0.00 29 1000.9
20260509182000 66 171 11.3 12.2 0.00 0.00 0.00 28 1000.9
20260509181000 66 129 12.2 11.3 0.00 0.00 0.00 26 1001.2
20260509180500 67 140 11.3 17.4 0.00 0.00 0.00 27 1001.3
20260509180000 66 130 10.4 7.8 0.00 0.00 0.00 28 1001.4
20260509175506 66 281 15.6 13.9 0.00 0.00 0.00 26 1001.4
20260509175000 65 16 13.0 12.2 0.00 0.00 0.00 27 1001.6
20260509174502 66 181 12.2 10.4 0.00 0.00 0.00 27 1001.6
20260509173430 65 19 15.6 13.9 0.00 0.00 0.00 27 1001.8
20260509172933 66 196 10.4 7.0 0.00 0.00 0.00 29 1001.8
20260509172430 65 226 21.7 17.4 0.00 0.00 0.00 28 1001.9
20260509171930 66 112 19.1 18.2 0.00 0.00 0.00 28 1001.9
20260509171430 65 137 20.0 12.2 0.00 0.00 0.00 29 1002.2
20260509170929 66 112 17.4 13.9 0.00 0.00 0.00 30 1002.2
20260509170430 66 190 8.7 8.7 0.00 0.00 0.00 30 1002.4
20260509165929 65 208 6.1 5.2 0.00 0.00 0.00 31 1002.4
20260509165429 66 103 18.2 17.4 0.00 0.00 0.00 30 1002.4
20260509164929 65 178 13.0 8.7 0.00 0.00 0.00 30 1002.4
20260509164429 65 213 20.0 17.4 0.00 0.00 0.00 30 1002.4
20260509163901 65 163 21.7 13.9 0.00 0.00 0.00 30 1002.6
20260509163330 66 173 21.7 19.1 0.00 0.00 0.00 31 1002.6
20260509162833 66 101 7.8 12.2 0.00 0.00 0.00 33 1002.8
20260509162423 65 133 11.3 8.7 0.00 0.00 0.00 33 1002.8
20260509162330 65 133 11.3 8.7 0.00 0.00 0.00 33 1002.8
20260509161832 66 162 7.0 7.8 0.00 0.00 0.00 34 1002.8
20260509161330 65 142 10.4 8.7 0.00 0.00 0.00 33 1002.9
20260509160300 64 202 13.9 12.2 0.00 0.00 0.00 32 1003.2
20260509155802 64 125 17.4 17.4 0.00 0.00 0.00 32 1003.2
20260509155259 63 112 15.6 12.2 0.00 0.00 0.00 33 1003.4
20260509154800 63 133 20.0 11.3 0.00 0.00 0.00 34 1003.4
20260509154300 63 55 14.8 14.8 0.00 0.00 0.00 34 1003.4
20260509153759 63 208 12.2 7.0 0.00 0.00 0.00 34 1003.6
20260509153230 63 216 11.3 10.4 0.00 0.00 0.00 34 1003.6
20260509152730 63 270 11.3 10.4 0.00 0.00 0.00 36 1003.7
20260509151729 62 301 17.4 12.2 0.00 0.00 0.00 34 1003.7
20260509151230 62 200 13.0 18.2 0.00 0.00 0.00 35 1003.8
20260509150728 62 56 13.0 11.3 0.00 0.00 0.00 36 1003.8
20260509150327 62 107 17.4 12.2 0.00 0.00 0.00 38 1003.9
20260509150230 62 107 17.4 12.2 0.00 0.00 0.00 38 1003.9
20260509145731 62 215 7.0 5.2 0.00 0.00 0.00 40 1003.9
20260509144702 61 0 13.9 8.7 0.00 0.00 0.00 40 1003.9